Location: Newark
(41.8922°N, 9.0050°E)
Time: 22:41:40
(UTC+00:00)

Envisat - Pass Details

Date: 30 January 2020
Orbit: 764 x 766 km, 98.1° (Epoch: 19 February)

Event Time Altitude Azimuth Distance (km) Brightness Sun altitude
Rises 17:40:43 0° 182° (S) 3,217 6.4 -12.3°
Reaches altitude 10° 17:43:05 10° 188° (S) 2,296 5.7 -12.7°
Maximum altitude 17:47:57 46° 261° (W) 1,021 4.2 -13.6°
Drops below altitude 10° 17:52:50 10° 335° (NNW) 2,311 5.7 -14.5°
Sets 17:55:15 0° 341° (NNW) 3,241 6.4 -15.0°
